Tracking 25648 objects as of 16-May-2022
HD Live streaming from Space Station
objects crossing your sky now

STARLINK-3370

Track STARLINK-3370 now!
10-day predictions
STARLINK-3370 is classified as:


NORAD ID: 51127
Int'l Code: 2022-005Z
Perigee: 545.6 km
Apogee: 548.2 km
Inclination: 53.2 °
Period: 95.4 minutes
Semi major axis: 6917 km
RCS: Unknown
Launch date: January 19, 2022
Source: United States (US)
Launch site: AIR FORCE EASTERN TEST RANGE (AFETR)
aabbcc
Your satellite tracking list
Your tracking list is empty




NASA's NSSDC Master Catalog

Two Line Element Set (TLE):
1 51127U 22005Z   22136.25002315  .00027505  00000-0  17402-2 0  9992
2 51127  53.2193  74.4996 0001847  43.5064 257.4044 15.08826180 19490
Source of the keplerian elements: AFSPC